Weather History for KLTS - February, 2015

Change the Weather History Date:

Monday, February 9, 2015

  Actual Average Record
Temperature  
Mean Temperature 55 °F -  
Max Temperature 73 °F 53 °F 73 °F (2015)
Min Temperature 37 °F 30 °F 23 °F (2014)
Degree Days  
Heating Degree Days 10    
Growing Degree Days 5 (Base 50)    
Moisture  
Dew Point 37 °F    
Average Humidity 54    
Maximum Humidity 84    
Minimum Humidity 27    
Precipitation  
Precipitation 0.00 in - - ()
Sea Level Pressure  
Sea Level Pressure 30.08 in    
Wind  
Wind Speed 7 mph (ENE)    
Max Wind Speed 13 mph    
Max Gust Speed -    
Visibility 10 miles    
Events      
Averages and records for this station are not official NWS values.
T = Trace of Precipitation, MM = Missing Value Source: NWS Daily Summary

Daily Weather History Graph

Daily Weather History Graph

Search for Another Location

Airport or City:

Trip Planner

Search our weather history database for the weather conditions in past years. The results will help you decide how hot, cold, wet, or windy it might be!

Date:

Astronomy

Feb. 09, 2015 Rise Set
Actual Time 7:28 AM CST 6:14 PM CST
Civil Twilight 7:02 AM CST 6:40 PM CST
Nautical Twilight 6:32 AM CST 7:10 PM CST
Astronomical Twilight 6:03 AM CST 7:39 PM CST
Moon 11:35 PM CST (2/9) 10:21 AM CST (2/9)
Length of Visible Light 11h 37m
Length of Day
10h 45m
Waning Gibbous, 73% of the Moon is Illuminated
Feb 9
Waning Gibbous
Feb 11
Last Quarter
Feb 18
New
Feb 25
First Quarter
Mar 5
Full

Hourly Weather History & Observations

Time (CST) Temp. Windchill Dew Point Humidity Pressure Visibility Wind Dir Wind Speed Gust Speed Precip Events Conditions
12:58 AM 43.3 °F 39.9 °F 36.9 °F 78% 30.06 in 10.0 mi North 5.8 mph - N/A   Clear
1:58 AM 43.9 °F 42.3 °F 35.2 °F 72% 30.06 in 10.0 mi NW 3.5 mph - N/A   Clear
2:58 AM 45.3 °F 41.6 °F 34.7 °F 66% 30.07 in 10.0 mi NW 6.9 mph - N/A   Clear
3:58 AM 44.1 °F 39.5 °F 34.3 °F 69% 30.09 in 10.0 mi NNW 8.1 mph - N/A   Clear
4:58 AM 37.9 °F 33.5 °F 33.4 °F 84% 30.11 in 10.0 mi NNW 5.8 mph - N/A   Clear
5:58 AM 42.1 °F 38.4 °F 33.8 °F 72% 30.12 in 10.0 mi North 5.8 mph - N/A   Clear
6:58 AM 37.2 °F 33.6 °F 32.7 °F 84% 30.15 in 10.0 mi WNW 4.6 mph - N/A   Clear
7:58 AM 42.3 °F 40.5 °F 35.2 °F 76% 30.17 in 10.0 mi WNW 3.5 mph - N/A   Clear
8:58 AM 48.9 °F - 36.7 °F 63% 30.20 in 10.0 mi WNW 3.5 mph - N/A   Clear
9:58 AM 59.4 °F - 37.8 °F 45% 30.19 in 10.0 mi NNE 11.5 mph - N/A   Clear
10:58 AM 63.1 °F - 38.1 °F 40% 30.19 in 10.0 mi NNE 8.1 mph - N/A   Clear
11:58 AM 68.7 °F - 38.8 °F 34% 30.17 in 10.0 mi ENE 5.8 mph - N/A   Clear
12:58 PM 71.1 °F - 38.1 °F 30% 30.13 in 10.0 mi SE 8.1 mph - N/A   Clear
1:58 PM 73.6 °F - 37.4 °F 27% 30.09 in 10.0 mi South 8.1 mph - N/A   Clear
2:58 PM 73.9 °F - 39.0 °F 28% 30.07 in 10.0 mi SE 8.1 mph - N/A   Clear
3:58 PM 73.8 °F - 37.4 °F 27% 30.05 in 10.0 mi SE 11.5 mph - N/A   Clear
4:58 PM 72.5 °F - 38.1 °F 29% 30.02 in 10.0 mi SE 12.7 mph - N/A   Clear
5:58 PM 66.9 °F - 40.8 °F 39% 30.02 in 10.0 mi ESE 11.5 mph - N/A   Clear
6:58 PM 57.4 °F - 40.5 °F 53% 30.04 in 10.0 mi ESE 9.2 mph - N/A   Clear
7:58 PM 55.8 °F - 40.5 °F 56% 30.02 in 10.0 mi ESE 10.4 mph - N/A   Clear
8:58 PM 52.5 °F - 40.3 °F 63% 30.01 in 10.0 mi ESE 8.1 mph - N/A   Clear
9:58 PM 56.7 °F - 40.3 °F 54% 30.00 in 10.0 mi SE 8.1 mph - N/A   Clear
10:58 PM 55.0 °F - 39.2 °F 55% 29.99 in 10.0 mi SE 11.5 mph - N/A   Clear
11:58 PM 51.3 °F - 39.2 °F 63% 29.99 in 10.0 mi ESE 8.1 mph - N/A   Clear